Home > Time Zones > World Clock > Weather > Iran > Tabriz > Past weeks

Flag for Iran Weather past 2 weeks in Tabriz, Iran

Now
34 °F

Passing clouds.


Feels Like: 28 °F
Forecast: 30 / 48 °F
Wind: 7 mph from Northeast

Location: Tabriz Airport

Current Time: Mar 4, 2015 at 12:20:43 AM

Latest Report: Mar 4, 2015 at 12:00 AM


Visibility: N/A

Pressure: 29.98 "Hg

Humidity: 87%

Dew point: 30 °F

Location of TabrizLocation

Historic Weather in Tabriz — Graph

°F

Tabriz temperature yesterday

Maximum temperature yesterday: 48 °F (at 12:30 PM)
Minimum temperature yesterday: 34 °F (at 9:30 PM)
Average temperature yesterday: 40 °F

Past Weeks' High & Low Weather Summary

 TemperatureHumidityPressure
High55 °F (Feb 28, 4:30 PM)93% (Feb 16, 11:30 PM)30.39 "Hg (Feb 16, 11:30 PM)
Low23 °F (Feb 22, 11:30 PM)30% (Feb 27, 1:30 PM)29.53 "Hg (Feb 20, 4:00 PM)
Average37 °F65%30.03 "Hg
* Reported Feb 16 11:30 PM — Mar 3 11:30 PM, Tabriz, Weather by CustomWeather, © 2015

Note: Actual official high and low records may vary slightly from our data, if they occured in-between our weather recording intervals... More about our weather records

Advertising

Tabriz weather history for previous 24 hours

 ConditionsComfort  
Time TempWeatherWind HumidityBarometerVisibility
11:30 PM
Tue, Mar 3
34 °FPassing clouds.9 mph87%29.98 "HgN/A
11:00 PM34 °FPassing clouds.7 mph87%29.98 "HgN/A
10:30 PM34 °FPassing clouds.9 mph87%29.98 "HgN/A
9:30 PM34 °FPassing clouds.7 mph87%29.98 "HgN/A
9:00 PM36 °FPassing clouds.7 mph87%29.98 "HgN/A
8:30 PM36 °FPassing clouds.No wind87%29.98 "HgN/A
8:00 PM39 °FPassing clouds.No wind81%29.98 "HgN/A
7:30 PM39 °FPassing clouds.5 mph81%29.98 "HgN/A
7:00 PM39 °FPassing clouds.5 mph81%29.98 "Hg5 mi
6:30 PM41 °FScattered showers. Scattered clouds.7 mph76%29.98 "Hg5 mi
6:00 PM39 °FScattered showers. Broken clouds.14 mph81%29.95 "Hg5 mi
5:30 PM39 °FScattered showers. Broken clouds.21 mph81%29.95 "Hg5 mi
5:00 PM43 °FScattered showers. Partly sunny.12 mph66%29.92 "HgN/A
4:30 PM45 °FScattered showers. Partly sunny.9 mph66%29.92 "HgN/A
4:00 PM45 °FScattered showers. Broken clouds.14 mph71%29.92 "HgN/A
3:30 PM46 °FScattered showers. Partly sunny.5 mph62%29.92 "HgN/A
3:00 PM45 °FPartly sunny.9 mph71%29.92 "HgN/A
2:30 PM43 °FScattered clouds.14 mph76%29.92 "HgN/A
2:00 PM41 °FSprinkles. Broken clouds.16 mph76%29.95 "Hg5 mi
1:30 PM45 °FSprinkles. Broken clouds.14 mph57%29.95 "Hg5 mi
12:50 PM48 °FScattered showers. Broken clouds.7 mph58%29.98 "Hg5 mi
12:30 PM48 °FScattered showers. Broken clouds.7 mph58%29.98 "Hg5 mi
12:00 PM43 °FPartly sunny.5 mph71%29.98 "HgN/A
11:30 AM45 °FPartly sunny.5 mph71%29.98 "HgN/A
11:00 AM45 °FPartly sunny.5 mph66%29.98 "HgN/A
10:30 AM43 °FBroken clouds.5 mph71%30.01 "HgN/A
10:00 AM41 °FBroken clouds.5 mph81%30.01 "HgN/A
9:30 AM41 °FBroken clouds.5 mph81%30.01 "Hg6 mi
9:00 AM39 °FBroken clouds.2 mph87%30.01 "Hg5 mi
8:30 AM39 °FBroken clouds.5 mph87%30.01 "Hg4 mi
8:00 AM37 °FBroken clouds.5 mph93%30.01 "Hg4 mi
7:30 AM37 °FLight rain. Broken clouds.5 mph93%30.01 "Hg4 mi
7:00 AM37 °FMostly cloudy.7 mph93%30.01 "Hg4 mi
6:30 AM37 °FLight rain. Mostly cloudy.7 mph93%30.01 "Hg3 mi
6:00 AM37 °FLight rain. Partly cloudy.5 mph87%29.98 "Hg4 mi
5:30 AM37 °FLight rain. Partly cloudy.5 mph75%29.98 "Hg4 mi
5:00 AM37 °FPassing clouds.5 mph75%29.98 "HgN/A
4:30 AM37 °FPassing clouds.No wind70%29.95 "HgN/A
4:00 AM37 °FPassing clouds.5 mph70%29.95 "HgN/A
3:30 AM37 °FPassing clouds.5 mph70%29.95 "HgN/A
3:00 AM37 °FPassing clouds.7 mph65%29.98 "HgN/A
2:30 AM37 °FPassing clouds.5 mph70%29.98 "HgN/A
2:00 AM39 °FPassing clouds.5 mph65%29.98 "HgN/A
1:30 AM39 °FPassing clouds.7 mph70%29.98 "HgN/A
1:00 AM37 °FPassing clouds.7 mph70%29.98 "HgN/A
12:30 AM37 °FPassing clouds.5 mph70%29.98 "HgN/A
12:00 AM37 °FPassing clouds.5 mph65%29.98 "HgN/A
Weather by CustomWeather, © 2015

See weather overviewHow to use our weather pages